Regional Weather Roundup
Issued by NWS Cleveland, OH

Home | Current Version | Previous Version | Graphics & Text | Print | Product List | Glossary On
Versions: 1 2 3 4 5 6 7 8 9 10 11 12 13 14 15 16 17 18 19 20 21 22 23 24 25 26 27 28 29 30 31 32 33 34 35 36 37 38 39 40 41 42 43 44 45 46 47 48 49 50
000
ASUS41 KCLE 270510
RWRCLE
OHIO REGIONAL WEATHER ROUNDUP
NATIONAL WEATHER SERVICE CLEVELAND, OH
1200 AM EST FRI FEB 27 2015

NOTE: "FAIR" INDICATES FEW OR NO CLOUDS BELOW 12,000 FEET WITH NO
SIGNIFICANT WEATHER AND/OR OBSTRUCTIONS TO VISIBILITY.

OHZ001>008-015>018-024>027-034-035-043-044-270600-
   NORTHWEST OHIO

CITY           SKY/WX    TMP DP  RH WIND       PRES   REMARKS
DEFIANCE       PTCLDY     6  -2  69 NW5       30.36S WCI  -3
FINDLAY        CLEAR      7   3  84 NW5       30.32S WCI  -2
TOLEDO EXPRESS CLEAR      3  -4  72 CALM      30.35R
TOLEDO EXEC    CLEAR      8  -2  63 CALM      30.36R
LIMA           CLOUDY    11   6  81 CALM      30.31S HAZE
$$

OHZ009>014-019>023-028>033-038-089-270600-
   NORTHEAST OHIO

CITY           SKY/WX    TMP DP  RH WIND       PRES   REMARKS
CLE-HOPKINS    MOCLDY     7  -1  70 N9        30.34R WCI  -7
CLE-LAKEFRONT  MOCLDY     8  -1  66 N10       30.32S WCI  -6
CUY CO. ARPT   NOT AVBL
LORAIN-ELYRIA  MOCLDY     6   1  80 N5        30.32S WCI  -3
ASHTABULA      MOCLDY     6   0  76 NW7       30.27R WCI  -6
AKRON-CANTON   FLURRIES   6   0  76 N7        30.25R WCI  -6
WOOSTER        CLEAR      3  -1  83 N6        30.27S WCI  -8
MANSFIELD      PTCLDY     1  -1  91 NW7       30.26R WCI -12
YOUNGSTOWN     FLURRIES   4   0  83 NW7       30.24R WCI  -8
$$

OHZ042-051>053-060>062-070>072-077>081-270600-
  SOUTHWEST OHIO

CITY           SKY/WX    TMP DP  RH WIND       PRES   REMARKS
CINC-COVINGTON PTCLDY    12   4  70 NW6       30.34R WCI   3
CINC-LUNKEN    CLEAR     11   5  77 CALM      30.39R
HAMILTON       PTCLDY     3  -1  83 CALM      30.37R
DAYTON         CLEAR      6   2  83 NW6       30.33R WCI  -4
WRIGHT-PAT AFB CLEAR      7   2  81 CALM      30.34R
DAYTON GENERAL CLEAR      9   3  77 N6        30.32R WCI  -1
WILMINGTON     CLEAR      8   1  73 NW6       30.31R WCI  -2
$$

OHZ036-037-039>041-045>050-054>059-063>069-073>076-082>088-270600-
  CENTRAL AND SOUTHEAST OHIO

CITY           SKY/WX    TMP DP  RH WIND       PRES   REMARKS
COLUMBUS       FAIR      10   3  73 NW7       30.32R WCI  -1
OSU AIRPORT    CLEAR      8   3  80 NW6       30.31R WCI  -2
BOLTON FIELD   FAIR     N/A N/A N/A NW5       30.32R
RICKENBACK AFB FAIR      10   3  74 N6        30.32R WCI   0
NEWARK         MOCLDY     9   2  73 N3        30.30R
MARION         CLOUDY     7   3  84 NW5       30.30S WCI  -2
LANCASTER      CLEAR      9   4  80 N3        30.31R
ZANESVILLE     MOCLDY    11   3  70 N7        30.28R WCI   0
NEW PHILLY     PTCLDY    11   2  67 N5        30.29R WCI   3
$$



USA.gov is the U.S. government's official web portal to all federal, state and local government web resources and services.